Location: Milevsko
(49.4500°N, 14.3670°E)
Time: 09:30:25
(UTC+02:00)

ISS - Pass Details

Date: 16 July 2018
Orbit: 402 x 408 km, 51.6° (Epoch: 17 July)

Event Time Altitude Azimuth Distance (km) Brightness Sun altitude
Exits shadow 00:59:18 36° 95° (E) 657 -2.9 -19.1°
Drops below altitude 10° 01:01:30 10° 75° (ENE) 1,469 -0.9 -19.1°
Sets 01:03:37 0° 71° (ENE) 2,333 0.3 -19.1°
